Regional Weather Roundup
Issued by NWS

Home | Current Version | Previous Version | Graphics & Text | Print | Product List | Glossary On
Versions: 1 2 3 4 5 6 7 8 9 10 11 12 13 14 15 16 17 18 19 20 21 22 23 24 25 26 27 28 29 30 31 32 33 34 35 36 37 38 39 40 41 42 43 44 45 46 47 48 49 50
000
ASUS43 KTOP 270559
RWRKS

WEATHER ROUNDUP FOR KANSAS
NATIONAL WEATHER SERVICE GOODLAND KS
1200 AM CST TUE JAN 27 2015

NOTE:  "FAIR" INDICATES FEW OR NO CLOUDS BELOW 12,000 FEET WITH NO
SIGNIFICANT WEATHER AND/OR OBSTRUCTIONS TO VISIBILITY.

KSZ001>006-013>018-027>032-041>047-270700-
NORTHWEST KANSAS

CITY           SKY/WX    TMP DP  RH WIND       PRES   REMARKS
GOODLAND       CLEAR     44  30  57 SW13      30.14F
6HR MIN TEMP:  42; 6HR MAX TEMP:  51;

HAYS           CLEAR     37  23  56 W9        30.10R
HILL CITY      CLEAR     41  28  60 W8        30.11R
6HR MIN TEMP:  39; 6HR MAX TEMP:  62;

RUSSELL        CLEAR     36  29  75 W5        30.08R
6HR MIN TEMP:  36; 6HR MAX TEMP:  60;

$$

KSZ061>065-074>080-084>089-270700-
SOUTHWEST KANSAS

CITY           SKY/WX    TMP DP  RH WIND       PRES   REMARKS
DODGE CITY     CLEAR     43  29  57 SW8       30.14R
6HR MIN TEMP:  40; 6HR MAX TEMP:  60;

ELKHART          N/A     48  30  49 W9          N/A
GARDEN CITY    CLEAR     38  29  70 W8        30.14S
6HR MIN TEMP:  38; 6HR MAX TEMP:  58;

GREAT BEND     CLEAR     37  27  65 CALM      30.10S
LIBERAL        CLEAR     41  28  60 W10       30.19R
$$

KSZ066>073-081>083-090>101-270700-
SOUTHEAST KANSAS

CITY           SKY/WX    TMP DP  RH WIND       PRES   REMARKS
CHANUTE        CLEAR     36  32  85 W5        30.05R
6HR MIN TEMP:  36; 6HR MAX TEMP:  55;

COFFEYVILLE    CLEAR     42  34  73 CALM      30.04R
6HR MIN TEMP:  40; 6HR MAX TEMP:  60;

HUTCHINSON     CLEAR     42  31  64 NW6       30.08R
6HR MIN TEMP:  38; 6HR MAX TEMP:  63;

MEDICINE LODGE   N/A     40  31  70 N5        30.09S
NEWTON         CLEAR     45  28  53 NW5       30.09S
PARSONS        CLEAR     37  31  78 CALM      30.05R
6HR MIN TEMP:  36; 6HR MAX TEMP:  56;

WICHITA INTL   CLEAR     43  32  65 NW7       30.07R
6HR MIN TEMP:  41; 6HR MAX TEMP:  62;

WICHITA JABRA  CLEAR     47  34  60 W8        30.07R
6HR MIN TEMP:  46; 6HR MAX TEMP:  60;

WINFIELD       CLEAR     39  30  70 CALM      30.08R
6HR MIN TEMP:  37; 6HR MAX TEMP:  60;

$$

KSZ007>012-019>026-033>040-048>060-102>105-270700-
NORTHEAST KANSAS

CITY           SKY/WX    TMP DP  RH WIND       PRES   REMARKS
CONCORDIA      CLEAR     43  33  68 CALM      30.07R
6HR MIN TEMP:  40; 6HR MAX TEMP:  58;

EMPORIA        CLEAR     42  30  62 NW5       30.05R
6HR MIN TEMP:  42; 6HR MAX TEMP:  57;

LAWRENCE       CLEAR     27  23  85 NW7       30.05R
6HR MIN TEMP:  27; 6HR MAX TEMP:  49;

MANHATTAN      PTCLDY    28  24  85 CALM      30.07R
6HR MIN TEMP:  27; 6HR MAX TEMP:  60;

OLATHE IND     CLEAR     41  30  65 W6        30.04R
6HR MIN TEMP:  40; 6HR MAX TEMP:  53;

OLATHE EXE     CLEAR     41  31  67 W3        30.02R
6HR MIN TEMP:  41; 6HR MAX TEMP:  55;

SALINA         CLEAR     38  30  73 SW5       30.08R
6HR MIN TEMP:  37; 6HR MAX TEMP:  57;

TOPEKA BILLARD CLEAR     33  27  78 CALM      30.06R
6HR MIN TEMP:  32; 6HR MAX TEMP:  58;

TOPEKA FORBES  CLEAR     36  26  67 NW6       30.05R
6HR MIN TEMP:  33; 6HR MAX TEMP:  53;

$$


USA.gov is the U.S. government's official web portal to all federal, state and local government web resources and services.